DW5707 Weather Reports


time (UTC)temp
F
wind
direction
speed
knots
gust
knots
rain 1hr
in
rain 24hr
in
rain mn
in
humidity
%
barometer
mb
20260507075232 50 357 1.7 3.5 0.00 0.31 0.11 95 1010.8
20260507074728 50 354 0.9 2.6 0.00 0.31 0.11 95 1010.8
20260507073728 50 345 0.0 1.7 0.01 0.31 0.11 95 1010.7
20260507073227 50 345 0.9 3.5 0.01 0.31 0.11 95 1010.9
20260507072727 50 345 1.7 4.3 0.01 0.31 0.11 95 1010.9
20260507072228 50 345 2.6 4.3 0.01 0.31 0.11 95 1011.0
20260507071728 50 354 1.7 4.3 0.01 0.31 0.11 96 1011.1
20260507071228 49 345 0.9 2.6 0.02 0.31 0.11 95 1011.2
20260507070724 49 345 0.9 2.6 0.03 0.31 0.11 95 1011.2
20260507070223 49 345 0.0 1.7 0.03 0.31 0.11 95 1011.3
20260507065723 49 345 0.0 0.9 0.03 0.31 0.11 95 1011.2
20260507065223 49 345 0.0 0.9 0.04 0.31 0.11 95 1011.3
20260507064722 49 345 0.0 0.0 0.04 0.31 0.11 95 1011.4
20260507063722 50 345 0.0 0.9 0.03 0.30 0.10 95 1011.2
20260507063224 50 345 0.0 0.9 0.03 0.30 0.10 94 1011.4
20260507062220 50 345 0.9 2.6 0.03 0.30 0.10 94 1011.5
20260507061719 50 345 0.9 5.2 0.03 0.30 0.10 94 1011.5
20260507061219 50 345 0.9 5.2 0.02 0.29 0.09 94 1011.5
20260507060719 51 345 0.9 1.7 0.01 0.28 0.08 94 1011.3
20260507060220 51 345 0.9 3.5 0.01 0.28 0.08 94 1011.3
20260507055719 51 354 0.9 3.5 0.01 0.28 0.08 94 1011.2
20260507055221 52 350 0.9 2.6 0.00 0.27 0.07 94 1011.2
20260507054720 52 350 1.7 5.2 0.00 0.27 0.07 94 1011.2
20260507054220 52 350 3.5 7.8 0.00 0.27 0.07 94 1011.3
20260507053720 52 336 3.5 7.8 0.00 0.27 0.07 94 1011.4
20260507053219 52 327 1.7 7.8 0.00 0.27 0.07 94 1011.3
20260507052719 52 336 0.9 2.6 0.00 0.27 0.07 94 1011.3
20260507051719 52 336 2.6 7.0 0.01 0.27 0.07 94 1011.1
20260507051218 52 350 2.6 7.0 0.01 0.27 0.07 94 1011.2
20260507050721 52 345 2.6 5.2 0.03 0.27 0.07 94 1011.2
20260507050219 53 355 2.6 7.0 0.07 0.27 0.07 93 1011.3
20260507045720 53 345 2.6 7.0 0.07 0.27 0.07 94 1011.2
20260507044720 53 345 5.2 9.6 0.07 0.27 0.07 93 1011.3
20260507043720 53 345 4.3 11.3 0.07 0.27 0.07 93 1011.1
20260507043220 53 345 4.3 11.3 0.07 0.27 0.07 93 1011.0
20260507042714 53 345 4.3 7.8 0.07 0.27 0.07 93 1011.0
20260507042214 53 345 4.3 5.2 0.06 0.26 0.06 93 1010.7
20260507041714 53 354 5.2 9.6 0.06 0.26 0.06 92 1010.6
20260507041216 54 345 6.1 9.6 0.06 0.26 0.06 92 1010.8
20260507040712 54 345 7.0 11.3 0.04 0.24 0.04 91 1010.7
20260507040209 55 345 7.0 11.3 0.00 0.20 0.00 90 1010.7
20260507035709 55 327 7.0 11.3 0.00 0.20 0.20 89 1010.6
20260507035207 55 328 7.0 11.3 0.00 0.20 0.20 90 1010.3
20260507034708 55 345 7.8 11.3 0.00 0.20 0.20 90 1010.5
20260507033712 55 316 7.0 12.2 0.00 0.20 0.20 90 1010.6
20260507033211 55 345 7.0 12.2 0.00 0.20 0.20 90 1010.5
20260507032209 55 345 5.2 12.2 0.00 0.20 0.20 90 1010.6
20260507031705 56 345 3.5 8.7 0.00 0.20 0.20 90 1010.5
20260507031205 56 345 4.3 8.7 0.00 0.20 0.20 91 1010.5
20260507030703 56 345 3.5 7.8 0.00 0.20 0.20 91 1010.6
20260507025702 57 350 5.2 7.8 0.00 0.20 0.20 91 1010.4
20260507024703 57 332 6.1 8.7 0.00 0.20 0.20 91 1010.5
20260507024203 57 308 7.0 9.6 0.00 0.20 0.20 91 1010.4
20260507023702 57 345 7.0 9.6 0.00 0.20 0.20 90 1010.2
20260507023204 57 350 7.0 9.6 0.01 0.20 0.20 91 1010.2
20260507022704 57 350 7.0 9.6 0.02 0.20 0.20 91 1010.2
20260507022203 57 336 6.1 9.6 0.03 0.20 0.20 91 1010.1
20260507021704 58 345 6.1 8.7 0.03 0.20 0.20 91 1010.0
20260507021202 58 345 7.0 11.3 0.03 0.20 0.20 91 1010.1
20260507020701 58 345 7.8 11.3 0.03 0.20 0.20 91 1010.1
20260507015700 58 336 4.3 9.6 0.03 0.20 0.20 92 1010.1
20260507014701 59 350 5.2 9.6 0.03 0.20 0.20 94 1010.0
20260507014159 59 336 6.1 9.6 0.03 0.20 0.20 93 1010.2
20260507013658 59 345 6.1 10.4 0.04 0.20 0.20 93 1010.1
20260507013158 60 350 7.8 10.4 0.03 0.19 0.19 92 1010.2
20260507012657 60 350 7.0 12.2 0.02 0.18 0.18 92 1010.5
20260507012158 60 345 6.1 12.2 0.01 0.17 0.17 93 1010.4
20260507011658 61 323 5.2 7.8 0.01 0.17 0.17 93 1010.5
20260507011159 61 327 5.2 8.7 0.01 0.17 0.17 93 1010.4
20260507005151 62 325 5.2 7.8 0.01 0.17 0.17 92 1010.2
20260507004653 62 314 5.2 8.7 0.01 0.17 0.17 91 1010.2
20260507004153 63 345 6.1 9.6 0.01 0.17 0.17 90 1009.9
20260507003651 64 314 4.3 9.6 0.00 0.16 0.16 89 1009.9
20260507003156 64 340 1.7 8.7 0.00 0.16 0.16 90 1009.7
20260507002654 64 350 0.9 2.6 0.00 0.16 0.16 91 1009.6
20260507002153 64 318 1.7 2.6 0.00 0.16 0.16 91 1009.6
20260507001150 64 298 0.9 3.5 0.00 0.16 0.16 91 1009.4
20260507000649 64 300 0.0 0.9 0.00 0.16 0.16 90 1009.3
20260507000144 64 296 0.9 2.6 0.00 0.16 0.16 90 1009.3
20260506235648 65 296 0.9 2.6 0.00 0.16 0.16 90 1008.9
20260506235145 65 237 0.9 2.6 0.00 0.16 0.16 90 1008.8
20260506234651 65 251 1.7 3.5 0.00 0.16 0.16 89 1008.9
20260506234144 65 261 0.9 4.3 0.00 0.16 0.16 89 1009.0
20260506233140 65 237 0.0 1.7 0.00 0.16 0.16 89 1008.8
20260506232641 65 238 0.0 5.2 0.00 0.16 0.16 89 1008.8
20260506232140 65 238 0.9 5.2 0.00 0.16 0.16 88 1008.8
20260506231641 65 237 0.9 4.3 0.00 0.16 0.16 88 1008.7
20260506231139 65 240 0.9 4.3 0.00 0.16 0.16 88 1008.7
20260506230639 66 271 0.9 5.2 0.00 0.16 0.16 88 1008.7
20260506230138 66 244 0.9 5.2 0.00 0.16 0.16 88 1008.6
20260506225638 66 256 1.7 5.2 0.00 0.16 0.16 88 1008.8
20260506225137 66 281 0.9 5.2 0.00 0.16 0.16 88 1008.6
20260506224637 66 222 0.9 3.5 0.00 0.16 0.16 88 1008.6
20260506223636 66 281 0.9 2.6 0.00 0.16 0.16 88 1008.6
20260506223136 66 185 0.9 3.5 0.00 0.16 0.16 88 1008.7
20260506222136 65 212 0.9 2.6 0.00 0.16 0.16 88 1008.7
20260506221137 65 248 0.0 1.7 0.00 0.16 0.16 89 1008.7
20260506220631 65 248 0.9 3.5 0.00 0.16 0.16 89 1008.6
20260506220133 65 248 1.7 3.5 0.00 0.16 0.16 88 1008.7
20260506215632 65 219 1.7 5.2 0.00 0.16 0.16 87 1008.7
20260506215133 65 229 1.7 5.2 0.00 0.16 0.16 87 1008.7
20260506214631 66 259 1.7 5.2 0.00 0.16 0.16 87 1008.7
20260506213134 66 242 0.9 3.5 0.00 0.16 0.16 87 1008.3
20260506212633 66 249 0.9 2.6 0.00 0.16 0.16 87 1008.0
20260506212133 66 249 0.9 4.3 0.00 0.16 0.16 86 1008.0
20260506211634 66 227 1.7 7.0 0.00 0.16 0.16 86 1008.0
20260506211143 66 169 1.7 7.0 0.00 0.16 0.16 86 1007.9
20260506210632 66 227 1.7 6.1 0.00 0.16 0.16 86 1007.9
20260506210131 67 238 1.7 6.1 0.00 0.16 0.16 85 1008.0
20260506205632 67 310 2.6 7.0 0.00 0.16 0.16 85 1007.8
20260506205133 67 258 2.6 7.8 0.00 0.16 0.16 85 1007.9
20260506204135 67 340 4.3 9.6 0.00 0.16 0.16 84 1008.0
20260506203629 67 190 3.5 9.6 0.00 0.16 0.16 85 1007.9
20260506203128 67 234 2.6 8.7 0.00 0.16 0.16 85 1007.9
20260506202629 67 252 2.6 7.0 0.00 0.16 0.16 85 1007.8
20260506201628 67 262 3.5 10.4 0.00 0.16 0.16 85 1008.0
20260506201133 67 209 3.5 9.6 0.00 0.16 0.16 84 1007.9
20260506200128 68 301 4.3 10.4 0.00 0.16 0.16 83 1007.9
20260506195627 69 266 4.3 10.4 0.00 0.16 0.16 84 1007.8
20260506195128 69 242 3.5 8.7 0.00 0.16 0.16 83 1007.8
20260506194628 68 258 2.6 7.8 0.00 0.16 0.16 85 1007.7
20260506194131 68 340 2.6 6.1 0.00 0.16 0.16 87 1007.8
20260506193630 67 195 2.6 7.0 0.00 0.16 0.16 88 1007.9
20260506193126 66 181 2.6 7.0 0.00 0.16 0.16 88 1007.9
20260506192620 65 186 0.9 5.2 0.00 0.16 0.16 89 1008.0
20260506192118 65 133 0.9 7.0 0.00 0.16 0.16 90 1008.0
20260506191617 64 275 1.7 7.0 0.00 0.16 0.16 90 1008.1
20260506190615 64 172 2.6 8.7 0.00 0.16 0.16 90 1008.3
20260506190114 64 179 2.6 8.7 0.00 0.16 0.16 90 1008.3
20260506185616 64 198 2.6 6.1 0.00 0.16 0.16 90 1008.3
20260506185116 64 156 3.5 9.6 0.00 0.16 0.16 90 1008.4
20260506184616 64 174 3.5 9.6 0.00 0.16 0.16 90 1008.4
20260506184111 64 201 3.5 8.7 0.00 0.16 0.16 90 1008.4
20260506183611 64 190 3.5 7.8 0.00 0.16 0.16 92 1008.4
20260506183109 63 202 2.6 7.8 0.00 0.16 0.16 91 1008.4
20260506182609 63 266 2.6 7.0 0.00 0.16 0.16 92 1008.5
20260506182109 63 358 2.6 7.8 0.00 0.16 0.16 93 1008.5
20260506181606 62 218 3.5 7.8 0.00 0.16 0.16 94 1008.5
20260506175605 61 345 1.7 9.6 0.00 0.16 0.16 94 1008.9
20260506175054 61 135 2.6 9.6 0.00 0.16 0.16 94 1008.8
20260506174055 60 345 2.6 9.6 0.00 0.16 0.16 95 1008.8
20260506173054 60 345 1.7 6.1 0.00 0.16 0.16 95 1008.8
20260506172553 60 182 1.7 7.8 0.00 0.16 0.16 95 1008.7
20260506172053 60 190 2.6 9.6 0.00 0.16 0.16 95 1008.8
20260506171553 60 233 2.6 9.6 0.00 0.16 0.16 95 1008.8
20260506171054 60 163 2.6 8.7 0.00 0.16 0.16 95 1008.8
20260506170556 60 345 3.5 8.7 0.00 0.16 0.16 95 1008.7
20260506165546 60 217 2.6 10.4 0.00 0.16 0.16 95 1008.8
20260506165040 60 192 3.5 11.3 0.00 0.16 0.16 95 1008.8
20260506164539 59 298 3.5 11.3 0.00 0.16 0.16 95 1008.7
20260506163540 59 227 2.6 8.7 0.01 0.16 0.16 95 1008.7
20260506161539 59 202 3.5 10.4 0.02 0.16 0.16 96 1009.1
20260506161039 59 165 2.6 7.0 0.03 0.16 0.16 96 1009.1
20260506160539 59 232 3.5 9.6 0.03 0.16 0.16 96 1009.1
20260506160055 59 178 3.5 9.6 0.04 0.16 0.16 96 1009.1
20260506155543 59 131 2.6 10.4 0.06 0.16 0.16 96 1008.9
20260506155040 59 228 4.3 10.4 0.06 0.16 0.16 96 1008.9
20260506154037 59 165 3.5 10.4 0.07 0.16 0.16 96 1008.8
20260506153536 59 217 3.5 10.4 0.07 0.15 0.15 96 1008.8
20260506153035 59 109 3.5 8.7 0.07 0.15 0.15 96 1008.6
20260506152030 59 162 3.5 13.0 0.06 0.14 0.14 95 1009.0
20260506151529 59 123 2.6 13.0 0.06 0.14 0.14 95 1009.3
20260506151029 59 204 2.6 6.1 0.06 0.13 0.13 95 1009.5
20260506150531 59 187 2.6 9.6 0.06 0.13 0.13 95 1009.6
20260506150029 59 180 3.5 9.6 0.05 0.12 0.12 95 1009.6
20260506145529 59 146 3.5 10.4 0.04 0.10 0.10 95 1009.6
20260506145029 59 177 4.3 10.4 0.04 0.10 0.10 95 1009.6
20260506144029 59 187 2.6 13.0 0.04 0.09 0.09 95 1009.5
20260506143529 59 164 3.5 9.6 0.03 0.08 0.08 95 1009.5
20260506143027 59 179 3.5 9.6 0.04 0.08 0.08 95 1009.5
20260506142520 59 203 3.5 8.7 0.04 0.08 0.08 94 1009.5
20260506142015 59 138 3.5 8.7 0.05 0.08 0.08 94 1009.4
20260506141515 59 181 4.3 10.4 0.06 0.08 0.08 94 1009.2
20260506141015 59 179 3.5 10.4 0.05 0.07 0.08 94 1009.2
20260506140513 59 148 3.5 11.3 0.05 0.07 0.07 94 1009.4
20260506140015 60 158 3.5 11.3 0.06 0.07 0.07 94 1009.5
20260506135514 60 160 2.6 6.1 0.05 0.06 0.06 94 1009.5
20260506135018 60 239 1.7 6.1 0.06 0.06 0.06 94 1009.7
20260506134517 60 155 2.6 8.7 0.06 0.06 0.06 93 1009.5
20260506134015 60 85 2.6 8.7 0.05 0.05 0.05 93 1009.6
20260506133517 59 193 2.6 6.1 0.05 0.05 0.05 93 1009.6
20260506133013 59 167 3.5 7.8 0.04 0.04 0.04 92 1009.7
20260506132509 60 170 2.6 9.6 0.04 0.04 0.04 92 1009.6
20260506131509 60 198 2.6 6.1 0.02 0.02 0.02 91 1009.6
20260506131007 60 201 2.6 7.8 0.02 0.02 0.02 90 1009.6
20260506130506 60 192 1.7 7.8 0.02 0.02 0.02 90 1009.7
20260506130003 61 174 1.7 4.3 0.01 0.01 0.01 89 1009.6
20260506125505 61 133 1.7 7.8 0.01 0.01 0.01 88 1009.6
20260506125005 61 213 2.6 7.8 0.00 0.00 0.00 87 1009.6
20260506124503 62 150 2.6 6.1 0.00 0.00 0.00 87 1009.6
20260506124004 62 199 2.6 8.7 0.00 0.00 0.00 86 1009.6
20260506123506 62 345 3.5 8.7 0.00 0.00 0.00 85 1009.7
20260506123003 62 345 3.5 7.8 0.00 0.00 0.00 85 1009.7
20260506122504 62 155 2.6 7.8 0.00 0.00 0.00 84 1009.7
20260506122004 62 147 3.5 9.6 0.00 0.00 0.00 83 1009.9
20260506121503 62 200 3.5 9.6 0.00 0.00 0.00 83 1010.0
20260506121004 63 169 3.5 9.6 0.00 0.00 0.00 83 1010.0
20260506115505 63 173 3.5 7.8 0.00 0.00 0.00 82 1009.9
20260506114959 62 252 3.5 8.7 0.00 0.00 0.00 82 1009.8
20260506114459 62 202 2.6 8.7 0.00 0.00 0.00 82 1009.7
20260506114000 62 156 1.7 7.0 0.00 0.00 0.00 83 1009.5
20260506113459 62 97 2.6 9.6 0.00 0.00 0.00 82 1009.5
20260506113000 62 191 2.6 9.6 0.00 0.00 0.00 82 1009.5
20260506112509 62 176 1.7 7.0 0.00 0.00 0.00 82 1009.4
20260506112001 62 220 1.7 7.0 0.00 0.00 0.00 82 1009.5
20260506111506 63 220 1.7 7.0 0.00 0.00 0.00 81 1009.4
20260506111003 63 147 1.7 7.0 0.00 0.00 0.00 81 1009.3
20260506110515 63 170 1.7 8.7 0.00 0.00 0.00 80 1009.4
20260506110000 63 189 2.6 8.7 0.00 0.00 0.00 80 1009.4
20260506105459 63 260 2.6 9.6 0.00 0.00 0.00 80 1009.3
20260506104958 63 182 2.6 9.6 0.00 0.00 0.00 80 1009.1
20260506104458 63 96 1.7 5.2 0.00 0.00 0.00 80 1009.1
20260506103956 63 223 2.6 10.4 0.00 0.00 0.00 79 1009.0
20260506103505 63 149 3.5 10.4 0.00 0.00 0.00 79 1009.0
20260506102956 63 73 3.5 12.2 0.00 0.00 0.00 79 1008.9
20260506102457 63 172 2.6 12.2 0.00 0.00 0.00 79 1008.8
20260506101954 63 221 2.6 13.0 0.00 0.00 0.00 79 1008.9
20260506100953 63 144 3.5 10.4 0.00 0.00 0.00 79 1009.0
20260506100454 63 125 2.6 10.4 0.00 0.00 0.00 78 1009.0
20260506095951 63 135 2.6 8.7 0.00 0.00 0.00 78 1009.0
20260506095452 63 182 2.6 8.7 0.00 0.00 0.00 78 1008.9
20260506094951 63 134 2.6 4.3 0.00 0.00 0.00 78 1008.9
20260506094452 63 210 2.6 5.2 0.00 0.00 0.00 77 1009.0
20260506093950 63 202 2.6 7.8 0.00 0.00 0.00 77 1008.9
20260506092451 64 125 1.7 6.1 0.00 0.00 0.00 76 1008.8
20260506091954 64 268 2.6 7.8 0.00 0.00 0.00 76 1008.8
20260506091451 64 127 2.6 7.8 0.00 0.00 0.00 76 1008.9
20260506090952 64 141 1.7 7.8 0.00 0.00 0.00 76 1008.9
20260506090451 64 210 2.6 10.4 0.00 0.00 0.00 75 1009.1
20260506085944 64 142 2.6 10.4 0.00 0.00 0.00 75 1009.1
20260506085444 64 163 1.7 6.1 0.00 0.00 0.00 75 1009.2
20260506084944 64 185 1.7 7.0 0.00 0.00 0.00 74 1009.2
20260506084442 64 259 2.6 7.0 0.00 0.00 0.00 74 1009.2
20260506083941 64 119 2.6 7.0 0.00 0.00 0.00 74 1009.2
20260506083441 65 107 2.6 7.0 0.00 0.00 0.00 73 1009.2
20260506082942 65 191 3.5 7.8 0.00 0.00 0.00 73 1009.2
20260506081938 65 98 2.6 6.1 0.00 0.00 0.00 72 1009.2
20260506081438 65 113 1.7 6.1 0.00 0.00 0.00 72 1009.2
20260506080939 65 184 1.7 6.1 0.00 0.00 0.00 71 1009.1